Location: Anton
(37.3520°N, 87.3947°W)
Time: 09:04:40
(UTC+00:00)

X-37B - Visible Passes

Search period start: 28 November 2022 00:00
Search period end: 08 December 2022 00:00
Orbit: 277 x 277 km, 45.0° (Epoch: 01 November)

Date Brightness Start Highest point End Pass type
(mag) Time Alt. Az. Time Alt. Az. Time Alt. Az.
05 Dec 1.9 23:28:41 10° S 23:30:24 17° SE 23:31:11 15° ESE visible
06 Dec 0.8 23:28:42 10° SW 23:30:59 35° SSE 23:32:02 23° E visible
07 Dec -0.2 23:29:11 10° WSW 23:31:37 81° SSE 23:32:48 26° ENE visible
